Torna al catalogo

COSMOS 2499 DEB

LostPO
NORAD 56579·DEBRIS·🇷🇺 Russia

Lanciato May 23, 2014 da Plesetsk Cosmodrome

Loading…

Prossimi Passaggi (prossime 24 ore)

TLE

ObsoletoSource: Space-Track

Epoca: Aug 1, 2026, 06:10 UTC

1 56579U 14028BN  26213.25702119  .00001295  00000-0  51418-2 0  9996
2 56579  82.2711 202.4940 0119240 260.6778  98.0826 12.84651259164859

Traccia COSMOS 2499 DEB in tempo reale con AllMySat

Download on the App Store